Location: Passau
(48.5830°N, 13.4830°E)
Time: 03:07:18
(UTC+01:00)

NOAA 19 - Pass Details

Date: 02 December 2021
Orbit: 841 x 860 km, 99.2° (Epoch: 17 January)

Event Time Altitude Azimuth Distance (km) Brightness Sun altitude
Rises 19:58:12 0° 204° (SSW) 3,384 8.5 -36.4°
Reaches altitude 10° 20:01:08 10° 220° (SW) 2,455 7.9 -36.9°
Maximum altitude 20:05:10 21° 269° (W) 1,807 7.4 -37.6°
Drops below altitude 10° 20:09:15 10° 317° (NW) 2,473 8.1 -38.3°
Sets 20:12:15 0° 334° (NNW) 3,417 8.8 -38.7°
